Wind_Speed
111 113 115 117 118 119 121 121 121 119 119 119 118 116 114 113 111 109 107 105 103 102 100 99 97 95 93 91 90 88 86 84 82 81 79 78 77 76 74 73 72 71 70 70 69 69 68 68 68 67 67 67 66 66 66 66 66 66 65 65 65 65 65 65 65 65 65 65 65 66 67 68 69 70 71 72 73 74 74 74 75 76 76 77 77 77
114 116 118 119 119 119 119 120 119 117 114 113 112 111 108 106 104 103 101 99 97 95 93 92 90 88 86 84 81 79 77 75 74 72 71 70 69 68 68 67 66 66 65 65 65 65 64 64 64 64 64 64 63 63 63 63 62 61 61 60 60 60 60 60 61 61 61 61 62 63 64 65 66 67 67 68 69 70 71 71 72 72 73 74 74 74
117 118 119 120 119 117 116 115 114 112 110 107 106 104 102 99 97 96 94 92 90 88 86 83 81 79 76 74 72 69 68 66 65 64 63 62 62 61 61 61 60 60 60 60 60 60 60 60 61 61 61 60 60 60 59 58 57 56 55 55 55 55 56 56 57 57 57 58 59 60 61 61 62 62 63 64 65 66 67 68 68 69 70 70 71 71
118 118 118 118 117 115 112 110 108 106 104 101 99 97 95 92 90 88 85 83 81 79 76 74 71 69 67 64 62 60 59 57 56 56 55 55 55 54 54 54 55 55 55 55 55 56 56 57 57 57 57 56 56 55 54 53 51 51 50 51 51 52 53 53 54 54 54 55 56 56 56 57 57 57 58 59 60 62 63 64 65 66 67 67 68 68
118 117 115 114 112 110 108 105 102 99 97 94 92 89 87 84 82 79 77 74 71 69 66 64 61 59 57 55 54 52 51 50 49 49 48 48 48 49 49 49 49 50 50 51 51 52 52 53 53 53 52 52 51 50 49 48 47 47 48 48 49 50 50 51 51 51 51 52 52 52 52 52 53 53 54 55 56 58 59 61 62 63 64 65 65 66
116 114 111 108 106 103 101 98 95 93 90 88 85 82 78 76 73 70 68 65 62 59 57 55 53 51 49 48 47 45 44 44 43 43 43 43 43 44 44 44 45 45 46 47 48 48 49 49 49 48 48 47 46 45 45 44 45 45 46 47 47 48 48 48 48 48 48 48 48 48 48 48 49 49 50 51 52 54 55 57 58 59 61 62 63 64
113 110 107 103 100 97 94 91 88 86 83 80 77 74 71 67 64 61 58 56 54 51 49 47 46 44 43 42 41 40 40 39 39 39 39 39 39 40 40 41 41 42 42 43 44 44 45 45 44 44 44 43 43 43 43 43 44 44 45 45 46 46 46 46 46 46 45 45 45 45 45 45 45 45 46 47 48 49 50 52 54 55 57 59 60 61
107 104 101 97 94 91 89 86 82 78 75 72 69 66 63 59 56 53 50 48 46 45 44 42 40 39 38 38 37 37 37 36 36 36 36 36 36 36 37 37 38 39 39 40 41 41 41 41 41 42 42 42 42 43 43 44 44 44 44 44 44 44 44 44 43 43 43 43 42 42 42 42 42 42 42 43 44 45 46 48 49 51 53 55 56 58
100 97 94 91 88 84 81 79 76 72 67 64 61 58 55 52 49 46 44 42 41 40 40 39 37 36 35 35 35 35 35 34 34 34 34 34 34 34 34 35 36 36 37 38 38 39 40 40 41 41 42 43 44 44 44 44 44 44 43 43 43 42 42 42 41 41 41 40 40 40 39 39 39 39 40 40 41 42 43 45 46 48 49 51 53 54
94 90 87 85 82 78 74 71 68 64 60 57 54 51 49 47 45 42 40 38 37 37 37 37 36 35 34 34 34 34 34 33 33 33 33 33 33 33 34 34 35 35 36 37 38 39 40 41 42 43 44 45 46 46 46 45 45 44 43 42 41 41 40 39 39 38 38 37 37 37 36 36 36 37 37 38 39 40 42 43 44 45 47 48 49 51
89 85 82 79 77 73 68 64 60 56 53 51 48 46 44 43 42 41 38 36 35 35 35 35 35 35 34 34 34 33 33 33 33 32 33 33 34 34 35 35 36 36 37 38 39 41 42 44 45 46 47 47 48 47 47 46 45 43 42 41 40 39 38 37 36 36 35 34 34 33 33 33 33 34 35 36 37 38 40 42 43 44 45 46 47 48
82 80 77 74 71 67 62 58 54 50 47 46 44 43 41 41 40 40 39 37 36 35 34 34 34 34 35 35 35 34 33 33 33 32 33 33 34 35 36 37 37 38 39 40 42 43 45 46 47 48 48 48 48 47 47 46 44 43 42 40 39 38 37 35 34 33 32 31 31 30 30 30 30 31 32 33 34 36 38 40 42 43 44 44 45 46
78 75 72 68 64 60 56 52 48 46 44 43 42 41 40 40 39 39 38 37 36 35 34 33 33 33 34 35 35 35 33 33 32 32 32 33 34 35 35 36 37 37 39 40 41 43 44 46 46 47 47 47 46 46 45 44 43 42 41 40 38 37 36 34 33 31 30 29 28 28 28 29 29 30 30 31 33 34 37 38 40 41 42 43 43 44
73 70 67 63 59 54 50 47 44 42 42 41 41 41 40 39 39 38 37 36 35 34 33 32 32 32 33 34 34 34 33 31 30 29 29 30 31 32 33 33 33 33 34 35 37 38 40 41 42 42 43 43 43 43 43 42 42 41 40 39 38 37 35 34 32 31 29 28 28 28 28 29 29 30 30 31 33 34 36 37 38 39 40 41 42 42
68 65 61 57 53 49 45 43 42 41 40 40 40 40 39 38 37 36 36 34 33 32 31 30 29 29 30 32 33 33 32 30 28 27 26 27 28 29 30 29 29 29 30 31 32 33 34 36 36 37 38 38 39 40 40 40 40 39 39 38 38 37 36 35 33 32 31 30 30 30 30 30 30 30 31 32 33 35 36 37 37 38 39 39 40 40
63 60 56 52 48 44 41 40 40 40 40 40 39 38 37 36 35 35 34 33 32 31 30 28 27 27 27 30 32 32 31 29 26 25 25 25 26 28 29 28 27 27 27 28 30 30 31 32 33 33 34 35 36 37 37 37 37 37 37 37 37 36 36 35 35 34 33 33 32 32 31 31 31 31 32 32 33 34 34 34 35 35 36 37 38 39
58 55 52 48 44 41 39 39 39 40 39 39 37 36 35 34 34 33 32 31 30 29 28 28 27 27 26 27 29 30 30 28 26 25 24 25 26 28 28 28 27 27 27 28 29 29 30 30 30 31 32 33 33 34 35 35 35 36 36 36 35 35 35 35 35 35 35 34 34 33 33 32 32 31 31 31 30 30 30 30 31 32 33 34 36 37
54 50 47 44 41 39 38 39 39 39 38 37 35 34 33 32 31 31 30 29 28 28 27 27 28 28 28 28 28 29 29 28 26 25 24 25 26 27 28 28 28 27 27 28 28 29 29 29 29 30 31 31 32 32 33 34 34 34 34 35 35 35 35 35 35 35 34 34 34 33 33 32 31 30 28 27 25 25 24 25 25 26 28 30 32 33
49 46 43 41 39 38 38 38 38 38 37 35 34 32 30 29 29 29 28 27 27 27 27 28 28 29 29 30 30 30 29 29 27 26 25 25 25 27 28 28 28 28 28 28 29 29 29 28 29 29 30 30 31 31 32 32 33 33 33 34 34 34 34 34 33 33 33 32 32 31 30 29 27 26 24 23 22 21 21 21 21 22 23 24 26 28
45 42 40 39 39 38 38 37 37 36 35 34 32 30 29 28 27 27 26 26 26 26 27 28 29 29 30 30 31 31 31 30 28 27 26 25 25 27 28 28 28 27 28 28 29 29 28 28 28 29 29 30 30 30 30 31 31 31 31 31 31 31 31 30 30 29 29 28 27 26 25 24 23 22 21 21 21 21 21 21 21 21 21 21 21 22
42 40 39 39 39 38 37 36 35 34 34 32 31 29 28 27 26 26 25 25 25 25 26 27 28 29 30 30 31 31 31 30 29 27 26 25 26 27 28 28 28 27 27 28 28 28 28 27 28 28 28 28 28 28 28 28 28 28 27 26 26 25 24 24 23 23 23 22 22 21 20 20 20 21 21 22 22 23 23 23 23 23 22 21 21 21
40 39 38 38 38 38 36 35 34 33 33 32 30 29 28 27 26 26 25 25 24 24 24 25 26 28 29 29 30 31 31 31 30 28 27 26 26 28 29 28 28 27 26 27 27 27 27 27 27 27 27 27 26 26 26 25 24 23 22 21 20 19 18 18 18 18 18 18 19 19 20 21 22 23 24 24 25 25 25 26 26 25 25 24 24 23
39 38 38 38 37 36 35 34 33 32 32 31 30 29 28 28 27 27 26 25 24 23 23 24 25 26 27 28 29 30 31 31 31 30 29 28 28 29 30 29 28 27 26 26 26 25 25 26 26 26 26 25 25 24 23 21 20 19 18 17 16 16 15 16 16 17 18 18 20 21 22 24 25 26 27 27 28 28 28 28 28 28 28 28 27 27
38 38 38 37 36 35 34 33 33 32 32 31 30 29 28 28 27 27 26 25 23 23 22 22 23 24 25 27 29 30 31 32 32 32 31 31 31 31 32 31 29 27 26 25 25 25 25 25 25 25 24 24 23 21 20 19 18 17 16 16 16 16 16 17 18 19 20 21 22 22 22 23 22 22 22 23 24 25 26 27 28 29 30 30 30 30
38 37 37 35 34 33 33 33 33 33 32 31 30 29 28 28 27 27 26 24 23 22 22 22 22 23 24 26 28 30 32 33 33 33 33 33 33 33 33 32 30 28 26 25 25 25 24 24 24 23 23 22 21 20 19 18 17 17 17 18 18 18 18 19 19 19 18 17 16 15 13 12 12 12 12 13 14 15 17 19 21 23 26 28 30 32
37 36 35 34 33 32 32 32 33 33 32 31 30 29 28 27 27 26 25 24 23 23 22 22 22 22 24 26 28 30 32 33 34 35 35 35 34 34 34 33 31 28 25 24 24 24 24 23 23 22 21 20 19 19 18 18 18 18 19 19 19 18 17 15 14 12 10 9 8 8 9 10 11 12 13 13 14 14 15 15 16 17 19 21 24 27
36 34 33 32 31 31 31 32 32 32 32 32 31 30 29 28 27 27 26 25 24 24 24 23 22 22 23 25 27 30 32 34 35 35 36 36 35 35 34 33 31 28 25 24 23 24 24 23 22 21 20 19 18 18 18 18 19 19 19 19 17 15 12 10 8 7 7 7 8 9 10 12 13 14 15 16 16 17 17 18 18 18 18 19 19 20
34 32 31 30 30 30 30 31 31 31 32 32 31 31 30 29 29 28 27 26 26 26 25 24 24 23 23 25 27 30 32 34 35 36 36 36 36 35 35 33 31 28 25 23 23 23 24 23 22 20 19 18 17 17 17 18 19 19 19 17 14 11 9 8 8 8 9 9 9 10 11 11 13 14 14 15 16 17 18 19 20 21 21 21 21 21
31 30 29 29 29 29 29 30 30 31 31 31 31 31 31 30 30 30 29 28 28 27 26 25 24 24 24 25 27 29 32 34 36 36 36 36 36 35 34 33 30 28 25 23 22 23 24 24 22 20 18 17 16 16 16 18 18 18 17 14 12 11 10 10 11 12 12 12 12 12 12 12 12 13 14 15 16 18 19 20 22 23 24 24 24 24
28 27 27 28 28 28 28 29 29 29 30 30 31 31 31 31 31 31 30 30 29 28 26 25 24 24 25 26 27 29 31 34 36 36 36 35 35 34 33 31 29 27 25 23 22 23 24 24 22 19 17 15 14 14 15 17 17 16 15 13 12 12 12 12 13 13 14 14 14 14 15 15 15 16 16 16 17 18 20 21 23 24 25 26 26 26
26 26 26 27 27 27 28 28 28 28 28 29 30 30 31 31 31 31 31 30 30 29 27 26 25 25 26 27 28 30 31 33 35 36 35 35 34 33 32 30 28 26 25 24 23 22 22 23 22 19 16 14 12 13 14 15 15 14 13 12 12 13 13 13 14 14 15 16 17 17 18 18 19 19 19 19 19 19 20 21 23 25 26 27 27 27
25 25 25 26 26 27 27 27 27 27 27 27 28 29 30 30 31 31 31 31 30 30 29 27 26 26 26 28 30 31 32 33 34 35 34 33 32 31 30 28 27 26 25 25 23 22 21 20 20 18 15 13 12 12 13 14 14 12 11 12 13 13 13 14 15 16 17 18 19 20 20 21 21 22 22 21 21 20 21 22 24 26 27 28 28 29
24 24 25 25 26 26 26 26 26 26 26 26 27 28 29 30 30 31 31 31 31 30 30 28 27 26 27 28 30 32 33 34 34 34 33 32 31 30 28 27 27 26 25 25 24 22 20 18 17 16 14 13 12 12 12 12 12 11 11 12 13 13 14 15 16 18 19 20 21 21 22 22 22 23 23 23 22 22 22 24 26 28 29 29 30 30
23 24 24 25 25 26 26 26 26 25 25 25 26 27 28 29 30 30 30 31 31 31 30 30 29 28 28 29 30 31 32 33 34 33 32 31 30 29 28 27 26 26 25 24 23 22 19 17 16 14 13 12 11 11 11 11 10 10 11 12 13 14 15 16 17 18 19 20 21 21 22 22 23 23 24 24 23 23 24 25 28 30 31 32 32 31
23 23 24 24 25 25 26 26 26 25 25 25 25 26 27 28 28 29 29 30 30 31 31 31 30 30 30 30 31 31 32 32 32 32 31 30 30 29 28 27 26 26 25 23 22 20 19 17 15 13 12 11 10 10 9 9 9 10 11 12 13 14 15 16 17 18 19 20 20 20 21 21 22 23 23 23 23 23 24 26 28 31 32 33 33 32
23 23 23 24 24 25 25 26 25 25 25 25 25 25 26 26 27 28 28 29 29 30 30 31 31 31 31 32 32 32 32 32 31 31 31 30 29 28 28 27 26 25 24 22 21 19 17 15 14 12 11 10 9 8 8 8 9 10 12 13 13 14 16 17 19 20 21 21 21 21 20 21 21 22 22 23 23 23 24 25 27 30 32 33 33 33
22 23 23 23 24 25 25 25 25 25 25 25 24 25 25 25 26 26 27 27 28 29 30 30 31 31 31 32 32 33 32 31 31 31 31 30 29 28 27 26 25 24 23 21 20 18 16 14 13 11 10 9 8 8 8 9 10 11 12 13 15 16 18 20 22 23 24 23 23 22 21 20 20 21 21 22 22 22 23 24 26 28 30 31 32 32
22 23 23 23 24 24 25 25 25 25 25 25 24 24 24 25 25 25 26 26 27 27 28 29 30 30 31 32 32 32 31 31 30 30 30 30 28 27 26 25 24 23 22 21 19 17 15 14 12 10 9 8 8 9 9 10 11 12 13 15 17 19 21 24 25 26 26 25 24 24 22 21 20 20 20 20 20 21 22 23 25 26 27 28 28 29
23 23 23 24 24 25 25 25 25 25 25 25 25 24 25 25 25 25 25 25 26 26 27 28 29 29 30 31 32 31 31 30 29 29 30 29 27 25 24 23 22 21 21 21 19 17 15 13 11 9 8 8 8 9 10 11 12 13 14 16 19 21 24 25 26 27 26 26 25 24 23 22 21 20 19 19 19 19 20 21 22 23 24 25 26 27
23 23 24 24 25 25 25 26 26 26 25 25 25 25 25 25 25 25 25 25 25 26 26 27 28 29 30 31 31 31 30 29 28 28 29 28 26 24 22 21 20 20 20 20 19 18 15 13 10 9 8 8 8 9 10 11 13 14 15 17 19 22 24 25 26 26 26 25 25 24 24 23 21 20 18 17 17 17 17 18 19 20 21 22 24 27
23 24 24 25 25 25 26 26 27 27 26 26 25 25 25 25 25 25 25 25 25 25 25 26 27 28 29 30 31 31 29 28 27 27 27 26 24 22 20 19 19 19 20 19 19 18 16 13 11 10 9 9 9 10 11 12 13 14 16 17 19 21 22 23 24 25 25 25 25 24 24 23 21 19 18 17 15 15 14 15 16 16 18 19 22 26
23 24 25 25 25 26 26 27 27 27 27 27 26 25 25 25 24 25 25 25 25 25 25 25 25 26 28 29 30 30 29 27 26 26 26 25 23 20 18 17 18 19 19 19 18 18 16 14 13 11 10 10 10 11 12 13 14 15 16 17 18 19 20 22 23 24 24 24 25 25 24 23 21 19 17 16 14 13 12 13 13 14 15 17 19 23
24 24 25 25 26 26 26 27 27 28 28 27 27 26 26 25 25 25 24 24 24 24 24 24 24 25 26 27 28 29 28 27 26 25 25 24 22 19 16 15 16 17 18 18 18 17 17 16 14 12 11 10 10 11 12 14 15 15 16 17 18 19 20 21 22 22 23 24 25 25 25 24 21 19 17 15 14 12 12 12 12 13 15 15 16 19
24 25 26 26 26 26 27 27 27 28 28 28 27 27 26 26 25 25 24 24 24 24 23 23 23 24 25 26 27 27 27 26 25 24 24 23 20 17 15 13 14 16 17 18 17 17 16 16 15 13 12 11 10 11 12 13 14 15 16 18 20 21 22 22 22 22 22 23 24 25 25 24 21 18 16 14 13 11 11 10 11 13 14 16 16 17
25 26 26 27 27 27 27 28 28 28 28 28 27 27 26 26 25 25 24 24 24 24 23 23 23 23 24 25 25 26 26 25 24 24 23 22 19 16 13 12 12 13 15 16 16 16 16 15 14 14 13 11 11 11 12 13 14 15 16 18 20 22 23 23 23 23 22 23 24 25 25 24 21 17 15 12 11 9 9 9 10 12 14 16 17 18
26 27 27 28 28 28 28 28 28 28 28 27 27 27 26 26 25 25 24 24 24 23 23 23 22 22 23 23 24 25 25 24 23 22 21 20 19 16 13 10 10 11 13 14 15 15 15 14 14 13 13 12 12 12 13 14 14 15 16 18 19 21 22 23 23 23 23 23 24 25 25 23 19 16 13 11 9 7 7 8 10 11 12 14 16 18
27 28 28 28 28 29 28 28 28 28 28 27 27 26 26 25 25 25 24 24 23 23 23 22 22 22 22 23 23 24 24 23 22 21 20 19 18 16 12 10 8 8 10 12 13 13 14 14 14 13 12 12 12 13 14 15 16 16 17 18 19 20 21 22 22 23 23 23 24 25 24 21 17 14 12 9 7 6 7 8 10 12 12 13 15 17
27 28 28 28 28 28 28 28 28 28 27 27 27 26 26 25 24 24 23 23 23 22 22 22 22 22 22 22 23 23 23 23 21 20 19 19 17 15 13 10 8 7 8 10 11 12 12 13 13 13 12 12 13 14 15 16 17 17 18 19 19 20 21 22 22 22 23 23 24 24 23 19 16 13 10 8 6 6 7 9 11 12 12 13 14 16
27 27 28 28 28 28 28 28 28 27 27 27 26 26 26 25 24 24 23 23 22 22 21 21 21 21 21 21 22 22 22 22 21 20 19 18 17 15 13 10 8 7 6 7 8 9 10 11 12 13 13 13 13 14 15 16 17 18 19 19 20 21 21 21 22 22 22 22 23 22 21 18 15 12 10 8 7 6 7 9 11 13 13 13 14 15
26 27 27 27 27 27 27 27 27 27 26 26 26 25 25 24 24 23 23 22 22 21 21 20 20 20 20 20 21 21 21 21 21 20 19 18 17 16 14 11 9 7 6 5 6 7 8 9 10 12 13 13 13 13 14 15 16 17 18 19 20 20 21 21 21 21 21 21 21 21 19 17 14 12 10 9 8 7 7 9 12 13 13 13 13 15
26 26 26 26 26 26 26 26 26 26 25 25 25 24 24 23 23 22 22 21 21 21 20 19 19 19 19 19 19 20 20 20 20 19 18 18 17 16 15 12 10 7 6 5 5 5 6 7 8 10 11 12 13 13 13 14 15 16 17 18 19 20 20 21 20 20 20 20 20 19 18 16 14 13 11 10 9 9 8 10 12 14 14 13 13 14
Wind_Direction
305 305 305 305 305 304 304 304 303 303 302 302 301 300 300 300 299 299 298 298 297 297 296 295 295 294 293 292 291 291 290 288 287 286 285 284 283 282 281 279 278 277 277 276 275 275 274 274 274 274 275 275 275 276 276 277 277 277 277 277 276 276 275 275 274 273 272 270 269 267 265 264 262 261 260 259 258 258 257 256 256 256 256 255 255 255
306 306 306 305 305 305 305 304 304 303 302 302 301 301 301 301 300 300 299 299 298 298 297 296 296 295 294 293 292 292 291 289 288 287 285 284 283 282 280 279 278 277 276 276 275 275 275 275 275 275 275 276 277 277 277 278 278 278 278 278 277 277 276 276 275 275 273 272 270 269 267 265 264 262 261 260 259 259 258 257 257 256 256 255 255 255
307 306 306 306 306 306 305 305 304 303 303 302 302 302 302 302 301 301 300 300 299 299 298 297 297 296 295 295 294 293 291 290 289 287 286 285 283 282 281 279 278 277 277 276 276 275 275 275 275 276 276 277 277 278 278 278 279 279 279 279 279 279 278 278 278 277 276 274 272 271 269 268 266 265 263 262 260 259 259 258 257 257 256 256 255 255
307 307 307 307 306 306 305 305 304 304 304 303 303 303 303 303 302 302 301 301 300 300 299 299 298 298 297 296 295 294 293 291 290 288 287 285 284 282 281 280 279 278 277 277 276 276 276 276 276 276 277 277 278 278 278 279 279 279 280 280 281 281 281 280 280 279 277 276 274 273 271 270 268 266 265 263 261 260 259 258 257 257 256 256 255 254
308 308 307 307 307 306 306 305 305 305 305 305 305 304 304 304 303 303 303 302 302 302 301 301 300 299 299 298 297 295 294 292 291 289 288 286 285 283 282 281 280 279 278 277 277 276 276 276 277 277 277 278 278 278 278 279 279 280 281 282 282 283 283 282 281 280 279 277 276 274 273 271 269 267 266 264 262 261 259 258 257 256 255 255 254 254
309 308 308 308 307 307 306 306 306 306 306 306 306 305 305 305 305 305 305 304 304 304 303 303 302 302 301 300 299 298 296 294 293 291 289 287 286 284 283 282 280 279 279 278 277 277 277 277 278 278 278 278 278 278 278 279 280 281 282 283 283 284 284 283 283 281 280 279 277 276 274 272 270 268 267 265 263 262 261 260 258 257 256 255 254 253
309 309 308 308 308 307 307 307 307 307 307 307 307 307 307 307 307 307 307 308 307 307 307 306 306 306 305 304 302 300 299 297 295 293 291 289 287 286 285 283 282 281 280 279 279 279 279 279 279 279 279 278 278 279 279 280 281 282 283 283 284 284 284 284 283 282 281 279 278 276 275 273 271 269 268 266 264 263 262 261 260 259 258 256 255 253
309 309 309 308 308 308 309 309 309 309 309 309 309 309 309 309 310 310 311 311 311 311 311 310 310 310 309 307 306 304 302 300 298 296 294 292 291 289 288 286 285 284 283 282 282 282 281 281 281 280 280 280 280 281 281 282 282 283 283 284 284 284 285 284 284 282 281 279 278 276 275 274 273 271 270 268 267 265 264 263 262 261 259 258 256 255
309 309 309 309 309 309 310 310 310 311 311 311 311 311 312 312 313 314 315 315 315 315 315 314 314 313 312 311 309 307 305 304 302 301 299 297 295 294 292 290 289 287 286 285 285 284 283 283 283 283 283 283 283 284 284 284 284 284 284 284 284 284 284 284 284 283 281 280 278 277 276 275 275 274 273 272 271 269 268 266 264 263 261 259 258 256
310 309 310 310 310 310 311 312 312 312 312 313 313 314 315 316 317 317 318 318 318 318 317 317 317 316 314 312 310 309 307 306 306 305 303 302 300 297 295 293 291 290 288 287 286 286 285 285 285 285 285 286 286 286 287 286 286 286 285 284 284 284 284 284 283 282 281 280 278 277 276 275 275 275 275 274 274 273 271 270 268 265 263 261 259 257
310 310 310 311 311 312 313 314 314 314 314 315 315 317 318 319 320 320 320 320 320 319 318 318 318 317 315 312 310 309 308 307 306 306 304 303 301 299 297 295 293 291 290 289 288 287 287 287 287 287 287 287 288 288 288 288 288 287 286 285 284 284 284 283 283 282 280 278 276 275 274 273 273 273 273 273 273 273 272 271 269 267 265 263 260 258
310 311 311 312 313 314 315 316 316 316 316 317 318 319 320 321 321 321 321 321 321 320 319 319 319 317 315 313 311 309 308 308 307 306 304 302 300 298 296 295 293 292 291 290 289 288 287 287 287 288 288 288 289 289 289 289 289 289 288 287 286 285 284 284 283 282 279 277 274 273 272 272 272 273 273 273 273 272 271 270 269 268 266 264 262 260
311 312 313 314 315 316 317 317 318 318 318 319 320 321 322 322 322 321 321 322 322 321 321 320 320 318 315 313 311 310 310 310 310 309 307 305 302 300 298 296 295 293 292 290 289 288 288 288 288 288 289 289 290 290 290 290 290 290 289 289 288 287 286 286 285 283 280 277 274 273 273 274 276 277 277 277 277 275 273 271 269 268 266 265 263 261
313 314 315 316 317 318 319 319 319 319 319 320 321 322 323 323 322 322 322 322 322 322 322 322 322 320 317 314 312 312 313 314 315 315 313 311 307 304 302 300 299 297 295 293 291 290 289 289 289 290 290 290 291 291 291 291 291 291 290 290 290 289 289 288 287 285 283 280 278 277 278 279 281 282 283 283 282 280 277 274 271 269 266 265 263 262
314 315 316 318 319 320 320 320 320 320 320 321 322 323 323 323 323 323 323 323 324 324 324 323 323 321 319 316 315 315 317 320 323 323 322 318 314 310 307 306 305 303 301 298 296 294 293 293 293 293 293 292 292 292 292 292 292 292 292 291 292 291 291 291 290 288 286 285 283 283 283 284 284 285 286 285 284 282 279 276 273 270 267 265 263 262
316 317 317 319 320 320 321 321 320 321 321 322 323 324 325 325 325 324 324 325 326 326 325 324 323 322 321 319 318 319 322 327 330 332 329 326 320 315 311 311 311 309 307 304 302 300 298 298 297 297 296 295 294 293 293 293 293 293 293 293 293 293 292 292 291 290 289 287 287 286 286 286 286 285 284 283 282 281 279 277 275 272 268 266 263 261
316 317 318 319 320 321 321 321 321 321 322 323 325 326 327 327 326 326 326 327 327 327 326 325 325 325 325 324 322 323 326 331 336 337 335 330 323 317 314 314 315 314 311 308 306 304 303 303 302 300 299 298 297 296 295 295 295 295 294 294 293 292 291 291 290 289 288 287 287 287 287 286 284 282 280 279 278 279 279 278 276 273 270 266 263 261
317 317 318 319 321 322 322 322 322 322 323 325 326 328 329 329 328 328 328 328 329 329 329 329 329 329 329 329 328 328 330 335 338 340 337 332 325 318 315 315 317 316 314 311 309 308 308 307 305 304 302 301 300 299 298 297 297 296 295 293 292 291 289 288 287 287 286 286 286 286 285 283 281 278 276 275 276 277 278 278 277 275 272 268 264 261
317 318 319 320 321 322 323 323 323 324 325 326 328 330 330 330 330 329 330 330 332 333 333 333 333 332 332 331 331 331 333 336 338 339 337 332 325 318 315 315 316 316 314 312 311 310 310 310 308 307 306 304 303 302 301 300 298 297 295 293 292 290 289 288 287 287 286 285 285 284 283 280 277 274 273 273 274 276 277 278 278 276 274 271 267 263
318 319 320 321 322 323 324 325 325 325 326 328 330 331 332 332 332 332 333 334 335 336 336 335 334 333 332 331 330 330 332 334 336 337 336 332 326 319 315 315 316 315 314 311 310 310 311 311 310 309 309 308 307 306 305 304 302 300 299 297 295 293 291 290 288 287 286 284 283 281 279 275 273 272 272 273 274 275 276 277 277 277 276 274 272 268
319 320 322 322 323 324 325 326 326 327 328 329 331 332 333 334 335 335 336 337 338 338 337 335 333 332 331 330 329 329 331 333 335 337 337 333 328 322 318 317 317 316 313 311 309 309 310 311 311 311 311 311 311 311 310 309 308 307 305 303 301 298 295 292 289 286 284 281 278 274 271 268 267 268 270 272 273 274 275 275 275 275 275 274 274 271
320 321 323 323 324 324 325 326 327 328 329 330 331 333 334 336 337 338 338 338 338 338 336 334 332 331 330 329 329 329 331 334 336 338 338 336 331 325 322 320 320 318 315 311 309 308 309 310 312 313 314 314 315 315 315 315 314 313 311 309 306 302 298 293 288 284 279 275 271 268 265 265 266 267 269 271 272 273 273 274 274 274 273 273 272 271
320 322 323 324 324 325 326 327 328 329 330 331 332 334 336 337 338 339 339 338 338 337 336 334 333 331 330 330 330 331 333 336 338 340 340 338 334 329 326 324 323 322 318 313 309 308 308 310 312 314 316 317 318 318 318 318 318 317 315 313 309 304 299 293 288 284 280 277 275 274 274 274 275 276 276 275 275 274 274 273 273 273 272 271 270 269
321 322 324 324 325 325 326 327 328 329 330 332 333 335 337 338 339 338 338 337 337 336 336 335 335 334 333 333 333 334 335 337 339 340 340 339 336 332 329 327 327 325 321 315 311 308 308 310 313 316 317 319 320 320 320 319 318 317 315 312 308 304 300 296 292 290 288 287 286 286 287 288 288 288 288 287 285 283 280 278 276 274 272 271 269 268
321 323 324 325 326 326 327 328 329 330 331 332 333 335 337 338 338 338 337 336 336 337 338 339 339 339 338 337 337 336 337 338 339 340 340 339 336 333 330 328 328 326 323 317 312 310 309 311 313 316 318 319 320 319 319 317 316 315 313 311 308 305 302 299 297 296 296 297 299 302 307 311 314 317 318 316 312 307 301 295 288 283 279 275 272 269
322 323 325 326 326 327 328 329 330 331 331 332 334 335 336 337 337 336 336 336 338 340 341 343 344 344 343 342 340 339 338 338 339 340 339 338 336 333 330 328 328 327 324 319 314 311 311 312 314 316 317 318 318 318 316 315 314 314 314 312 310 308 307 306 306 308 311 318 326 331 334 336 336 336 336 337 336 333 330 323 316 307 298 290 283 278
322 324 325 326 326 327 328 329 330 331 332 332 333 334 334 335 336 336 337 339 341 342 344 345 346 347 346 345 342 340 338 338 339 339 339 338 336 333 330 329 328 328 326 321 317 314 314 314 315 316 315 315 315 315 314 314 314 315 316 315 316 316 318 320 324 327 330 332 333 331 330 328 327 327 327 328 330 331 331 331 329 326 322 316 308 299
322 323 324 325 326 328 329 330 331 332 332 332 332 333 333 334 335 337 340 342 343 344 345 345 346 347 348 347 344 342 339 339 339 339 339 338 336 333 331 330 330 330 329 325 321 318 318 319 319 318 315 313 312 313 313 314 315 317 318 319 321 325 329 330 329 328 326 324 323 321 321 321 321 322 323 324 326 326 327 328 328 328 327 325 321 316
322 323 324 325 327 328 330 331 332 332 332 332 331 332 333 334 335 337 340 342 343 344 345 345 346 347 347 347 346 343 341 340 340 340 340 339 337 335 333 333 333 334 334 331 327 323 322 324 324 322 317 312 310 310 312 314 316 317 319 321 324 327 328 327 326 325 325 324 323 321 321 322 324 324 325 326 326 326 327 327 327 326 326 325 323 320
322 323 324 325 327 329 330 331 332 332 331 331 331 331 332 334 336 338 340 341 342 343 344 345 345 346 347 347 347 345 343 341 341 341 341 340 338 337 336 336 336 337 338 337 333 329 326 327 328 327 322 315 311 310 311 313 315 316 318 322 325 327 328 328 329 329 329 328 328 328 328 328 328 327 326 326 326 327 327 327 326 325 324 324 323 321
321 323 324 325 327 328 329 330 330 330 330 330 331 331 333 334 337 339 340 340 341 341 342 343 344 345 346 346 346 346 345 344 343 344 343 342 341 340 339 340 340 341 341 341 339 336 332 330 330 331 328 323 316 312 310 312 314 316 320 323 327 329 332 334 335 335 334 333 333 332 332 331 329 327 325 324 324 325 327 327 326 325 324 323 322 321
322 323 324 325 326 326 326 327 328 328 329 330 331 332 334 336 338 339 340 340 340 340 340 341 342 344 346 347 347 347 347 346 346 346 345 344 344 344 344 345 345 345 343 343 343 342 339 335 333 333 333 329 323 315 311 312 315 319 324 328 331 334 338 340 340 338 335 332 331 329 328 328 327 326 324 323 323 324 326 327 326 325 324 324 323 321
322 323 324 325 325 324 324 325 326 327 328 330 332 334 336 338 339 340 340 340 339 339 338 339 340 343 345 348 349 349 349 348 348 348 348 347 347 347 348 349 350 349 347 346 345 346 345 342 339 338 336 333 327 319 316 317 321 325 330 333 336 339 343 342 340 335 331 327 324 322 321 321 322 323 323 323 323 325 327 327 326 325 324 324 323 321
322 323 324 324 324 323 323 323 325 326 329 331 334 336 338 340 340 341 341 340 339 338 337 337 338 341 345 348 350 351 350 349 350 350 349 349 350 350 351 353 353 352 350 349 348 349 349 348 346 343 341 336 330 325 323 325 328 332 336 339 342 345 347 345 340 334 329 325 321 319 318 318 319 321 322 323 324 326 326 325 323 322 322 322 322 321
322 322 323 323 323 322 323 323 325 327 329 332 335 337 339 340 341 341 341 340 339 337 336 336 337 340 343 347 350 352 352 351 351 351 351 351 352 353 354 355 355 354 352 352 351 351 351 350 349 346 342 337 331 330 332 336 340 343 347 351 353 353 352 349 344 339 335 331 327 324 321 320 320 321 321 322 322 322 322 320 318 318 319 319 320 320
321 322 322 322 323 323 323 324 325 327 330 332 335 338 339 340 341 341 341 340 338 337 335 335 336 339 342 346 349 351 352 352 352 353 353 353 354 355 356 356 356 355 354 353 352 351 351 350 348 346 345 342 340 342 348 355 358 359 359 359 358 354 351 347 344 342 340 338 335 331 328 327 325 324 322 320 318 317 317 316 315 314 315 316 318 319
321 321 322 322 323 323 324 325 326 328 330 333 335 337 338 339 340 340 340 339 337 336 334 334 335 338 341 344 347 350 352 353 353 354 354 355 356 357 358 357 357 356 355 354 352 350 350 349 349 350 351 356 360 2 4 6 5 2 358 356 352 347 343 340 338 338 338 338 338 336 333 331 329 327 323 319 317 316 316 316 315 314 314 315 317 319
321 321 322 323 323 324 325 326 327 329 330 332 334 336 337 338 339 339 339 338 336 335 334 334 335 337 339 342 345 348 351 353 354 355 356 356 357 358 359 359 359 358 357 356 354 351 349 350 353 357 4 12 15 14 10 4 359 353 349 347 345 343 341 339 337 336 336 337 338 337 335 332 330 328 324 320 318 318 319 319 319 317 316 317 319 322
321 321 322 323 324 325 326 327 327 328 330 331 333 335 336 337 337 337 337 337 336 335 335 335 336 337 339 341 344 346 350 352 354 355 356 358 359 360 1 1 2 2 1 360 357 355 353 355 2 12 20 22 17 11 6 359 352 345 342 341 342 342 342 340 339 338 338 338 339 338 336 334 332 328 324 321 320 321 323 323 322 321 320 322 324 328
321 322 323 323 324 325 326 327 327 328 329 330 332 334 335 336 336 336 336 335 335 335 336 336 337 337 339 340 343 346 349 351 354 356 357 358 360 1 3 5 6 7 7 6 5 3 3 8 19 32 37 29 17 6 359 354 349 345 342 340 341 342 342 341 339 338 339 340 340 339 337 336 333 329 324 319 319 321 323 323 323 323 325 328 332 336
321 322 322 323 324 325 326 327 327 328 329 330 331 333 334 335 335 335 334 334 334 335 336 337 338 338 339 340 342 345 348 351 353 355 358 359 0 2 4 8 12 14 15 14 14 14 16 23 34 43 42 31 17 6 358 353 350 349 347 345 344 344 343 341 340 339 340 341 340 339 337 336 332 326 319 314 315 318 323 325 326 327 329 334 339 343
321 321 322 323 324 325 326 327 327 328 328 329 330 331 332 333 333 333 333 333 333 334 336 338 339 340 340 340 342 344 347 350 353 356 359 0 1 2 6 11 17 21 23 24 25 27 31 36 43 45 41 30 16 5 358 356 355 354 352 350 348 346 345 343 342 341 341 342 341 339 337 333 328 320 312 308 311 318 326 331 333 334 334 339 344 346
320 321 321 322 324 325 326 326 327 327 327 328 328 329 330 331 332 332 332 332 332 333 335 338 339 341 341 341 342 344 346 349 352 355 359 1 2 3 5 13 21 27 31 34 36 39 42 46 48 47 41 30 17 5 358 356 356 355 353 351 349 347 345 345 344 344 344 344 342 339 335 330 323 316 309 308 312 320 329 336 341 343 343 345 349 348
320 320 321 322 323 324 325 325 325 325 325 326 326 327 328 329 329 330 330 331 332 333 335 337 339 341 342 342 342 344 346 349 351 354 358 1 2 2 4 12 23 31 36 40 44 48 50 50 49 46 39 29 16 5 359 356 355 353 352 350 349 348 347 347 347 347 347 345 342 338 333 328 324 319 315 313 316 323 331 340 347 350 352 356 358 356
320 320 320 321 322 323 323 323 323 323 323 323 324 325 325 326 327 327 328 329 330 332 334 336 339 341 342 342 343 344 346 349 350 353 357 0 1 1 2 9 21 32 39 43 47 50 52 51 48 43 37 28 16 6 359 356 354 353 351 350 350 350 350 349 349 349 349 347 342 336 332 329 329 328 326 324 325 329 337 346 352 355 359 5 8 8
321 321 321 321 321 321 321 321 321 320 320 320 321 321 322 323 324 325 326 327 328 330 332 335 338 340 341 342 342 345 347 349 351 352 355 358 360 360 359 2 14 28 38 43 47 49 49 48 44 39 33 25 16 8 2 358 355 353 352 351 351 351 352 351 351 352 351 348 342 336 333 334 336 339 340 340 341 345 350 354 357 0 7 14 18 18
321 321 321 320 320 320 320 319 318 318 317 318 318 319 319 320 321 322 323 324 326 328 330 333 336 338 339 341 342 344 348 350 352 352 353 357 359 359 357 356 2 19 33 41 45 47 46 44 40 36 30 22 13 8 4 1 357 355 354 354 353 353 353 354 355 355 353 349 342 338 337 341 346 351 354 358 1 3 4 2 3 8 17 25 29 29
322 321 321 320 320 319 318 318 317 317 316 316 316 316 317 318 318 319 320 321 323 325 328 331 334 336 338 339 341 343 347 351 352 352 353 356 359 0 358 352 351 1 21 34 41 44 44 42 38 32 26 19 12 7 4 2 0 358 357 356 356 356 356 358 359 359 356 350 343 341 343 349 357 4 8 14 19 20 14 10 12 18 28 36 40 40
323 322 321 320 319 319 318 318 317 317 316 315 315 315 315 315 316 317 317 318 320 322 325 329 332 334 335 337 339 342 346 350 352 352 353 355 359 1 359 354 347 346 359 19 33 39 41 40 36 31 23 16 10 6 4 3 1 0 359 359 358 359 360 2 3 2 358 350 345 345 351 360 9 17 23 29 36 36 26 20 21 27 36 45 49 49
324 323 323 322 321 320 320 319 318 318 317 316 315 314 314 314 314 314 315 316 317 319 322 326 329 332 333 335 337 341 345 349 352 352 352 354 358 2 2 358 350 342 342 358 18 30 35 35 33 29 23 16 9 5 4 4 3 2 1 1 1 2 3 6 6 4 358 352 350 353 1 11 21 31 38 44 49 47 37 29 29 35 42 51 57 59
326 326 325 325 324 323 323 322 321 320 319 317 316 315 314 313 313 312 312 313 314 316 319 322 326 329 331 332 335 339 344 349 352 352 352 354 358 2 4 2 355 346 339 343 358 16 28 30 29 26 22 17 10 5 4 5 6 5 5 4 5 6 7 10 10 6 360 355 357 4 13 23 33 42 49 55 59 56 47 39 37 40 46 55 63 68
Height
5476 5470 5464 5458 5454 5449 5442 5433 5426 5421 5417 5409 5402 5394 5389 5384 5379 5373 5368 5363 5358 5353 5348 5343 5339 5336 5333 5330 5328 5325 5323 5320 5318 5316 5314 5313 5312 5311 5310 5310 5309 5309 5309 5309 5310 5310 5310 5311 5311 5311 5312 5312 5312 5313 5313 5312 5312 5312 5311 5311 5310 5309 5308 5307 5306 5306 5305 5305 5305 5304 5303 5303 5303 5303 5304 5304 5304 5304 5305 5306 5307 5308 5309 5310 5311 5313
5466 5460 5453 5446 5442 5438 5432 5423 5415 5408 5403 5398 5392 5385 5378 5373 5369 5363 5358 5353 5348 5343 5338 5334 5330 5326 5323 5320 5318 5315 5313 5311 5308 5307 5305 5304 5303 5303 5302 5302 5301 5301 5302 5302 5302 5303 5303 5303 5304 5304 5305 5305 5305 5305 5305 5305 5305 5304 5304 5303 5302 5301 5301 5299 5299 5298 5298 5297 5296 5296 5295 5295 5296 5296 5297 5297 5297 5297 5298 5298 5300 5301 5302 5303 5304 5305
5455 5450 5443 5435 5429 5424 5420 5413 5406 5398 5390 5385 5380 5375 5369 5364 5359 5354 5349 5344 5339 5334 5329 5325 5322 5318 5314 5312 5309 5307 5305 5303 5301 5299 5298 5297 5296 5295 5295 5294 5294 5294 5295 5295 5296 5296 5297 5297 5298 5298 5298 5299 5299 5299 5299 5298 5298 5298 5297 5297 5295 5294 5294 5293 5292 5291 5291 5290 5289 5288 5288 5288 5289 5289 5289 5290 5290 5290 5291 5292 5293 5294 5295 5296 5297 5298
5442 5438 5432 5425 5418 5412 5407 5401 5396 5389 5382 5376 5371 5366 5361 5356 5351 5346 5341 5336 5331 5327 5322 5318 5315 5311 5308 5305 5303 5301 5298 5296 5294 5293 5292 5290 5290 5289 5289 5288 5289 5289 5289 5290 5290 5290 5291 5291 5292 5292 5293 5293 5293 5293 5293 5293 5292 5292 5292 5290 5289 5288 5288 5287 5286 5285 5284 5283 5282 5281 5281 5281 5282 5282 5282 5282 5282 5283 5284 5285 5286 5286 5287 5288 5289 5291
5429 5425 5420 5414 5408 5402 5395 5390 5385 5379 5374 5368 5363 5358 5354 5348 5343 5338 5334 5329 5325 5321 5317 5313 5309 5306 5303 5299 5297 5295 5293 5291 5290 5288 5287 5286 5285 5284 5284 5284 5284 5284 5284 5285 5285 5285 5285 5286 5286 5287 5287 5287 5287 5287 5287 5287 5287 5287 5286 5285 5284 5283 5282 5281 5280 5279 5278 5277 5276 5275 5275 5275 5275 5275 5275 5275 5275 5276 5276 5277 5278 5279 5280 5281 5282 5283
5418 5413 5408 5403 5398 5393 5387 5381 5376 5371 5366 5361 5355 5351 5347 5343 5338 5333 5328 5323 5319 5315 5312 5308 5305 5302 5298 5295 5293 5291 5289 5288 5286 5284 5283 5282 5281 5281 5280 5280 5280 5280 5280 5280 5280 5280 5281 5281 5281 5282 5282 5282 5282 5283 5283 5282 5282 5282 5281 5280 5279 5278 5278 5276 5275 5273 5273 5272 5271 5270 5269 5269 5269 5269 5269 5269 5269 5269 5270 5270 5271 5272 5273 5274 5275 5276
5408 5403 5396 5392 5388 5383 5378 5373 5368 5364 5359 5354 5348 5344 5340 5337 5333 5328 5324 5319 5315 5311 5307 5304 5302 5299 5295 5293 5290 5288 5286 5284 5283 5282 5280 5279 5278 5278 5278 5277 5277 5277 5277 5277 5276 5276 5277 5277 5277 5277 5277 5277 5278 5278 5278 5278 5278 5278 5277 5276 5275 5274 5273 5272 5270 5269 5268 5267 5266 5265 5264 5264 5263 5263 5263 5263 5264 5264 5264 5264 5265 5265 5266 5267 5268 5269
5399 5394 5388 5383 5378 5375 5371 5365 5360 5356 5353 5348 5343 5338 5335 5332 5328 5325 5321 5316 5312 5308 5304 5302 5299 5297 5293 5290 5288 5285 5284 5282 5281 5279 5278 5277 5277 5276 5275 5275 5274 5274 5273 5273 5273 5273 5273 5273 5273 5273 5273 5273 5273 5273 5273 5273 5273 5273 5273 5272 5271 5270 5268 5267 5266 5264 5263 5262 5261 5260 5260 5259 5259 5259 5259 5259 5259 5259 5259 5259 5259 5259 5260 5260 5261 5262
5389 5386 5382 5377 5372 5368 5365 5360 5354 5350 5346 5342 5338 5333 5330 5327 5324 5322 5319 5315 5310 5306 5302 5299 5297 5295 5292 5289 5286 5284 5282 5280 5279 5278 5277 5276 5275 5274 5273 5273 5272 5271 5271 5270 5270 5269 5269 5269 5268 5268 5268 5268 5268 5268 5268 5268 5268 5268 5268 5267 5266 5265 5264 5263 5262 5260 5259 5258 5257 5256 5256 5255 5255 5254 5254 5254 5254 5254 5254 5254 5254 5254 5254 5254 5255 5256
5382 5378 5374 5370 5366 5362 5359 5355 5350 5345 5340 5337 5333 5330 5326 5323 5320 5318 5316 5313 5309 5305 5301 5298 5296 5293 5291 5288 5285 5283 5281 5279 5278 5277 5275 5274 5273 5272 5271 5270 5270 5269 5268 5268 5267 5266 5266 5265 5265 5264 5264 5264 5264 5263 5263 5263 5263 5263 5263 5262 5262 5261 5260 5259 5258 5257 5255 5254 5253 5253 5252 5252 5251 5250 5250 5250 5249 5249 5249 5249 5249 5249 5249 5249 5249 5250
5375 5371 5368 5364 5361 5357 5353 5349 5345 5341 5337 5333 5330 5327 5324 5321 5317 5314 5312 5310 5308 5304 5301 5298 5295 5292 5289 5286 5284 5282 5280 5278 5277 5276 5274 5273 5272 5270 5269 5268 5267 5267 5266 5265 5264 5263 5263 5262 5261 5260 5260 5259 5259 5259 5258 5258 5258 5258 5258 5258 5257 5257 5256 5255 5254 5253 5252 5251 5250 5249 5249 5248 5248 5247 5247 5246 5245 5245 5245 5244 5244 5244 5244 5243 5244 5244
5370 5366 5363 5360 5356 5352 5348 5344 5340 5337 5334 5330 5327 5324 5322 5319 5316 5312 5309 5307 5305 5303 5300 5297 5294 5290 5287 5284 5282 5280 5279 5278 5276 5275 5274 5272 5270 5268 5267 5266 5265 5264 5263 5262 5261 5260 5259 5258 5257 5256 5255 5255 5254 5254 5253 5253 5253 5253 5253 5253 5252 5252 5252 5251 5250 5249 5248 5248 5247 5246 5246 5245 5244 5244 5243 5243 5242 5241 5241 5240 5239 5239 5238 5238 5238 5239
5365 5362 5358 5355 5351 5347 5343 5339 5337 5334 5331 5328 5325 5322 5319 5317 5314 5311 5308 5305 5303 5300 5297 5295 5292 5289 5286 5282 5279 5278 5277 5276 5275 5274 5273 5271 5268 5267 5265 5264 5263 5262 5261 5260 5259 5258 5256 5254 5253 5253 5252 5251 5250 5250 5249 5248 5248 5248 5248 5248 5248 5247 5247 5247 5246 5245 5245 5244 5243 5243 5242 5241 5241 5240 5239 5238 5238 5237 5237 5236 5235 5234 5234 5233 5233 5233
5360 5357 5353 5349 5346 5343 5339 5336 5333 5331 5328 5325 5323 5320 5317 5314 5312 5308 5306 5303 5301 5298 5295 5293 5290 5288 5284 5281 5278 5276 5275 5275 5274 5273 5272 5269 5267 5264 5263 5262 5261 5260 5259 5258 5257 5255 5253 5252 5251 5250 5249 5248 5247 5246 5245 5244 5244 5243 5243 5243 5243 5243 5243 5242 5242 5241 5241 5240 5240 5239 5238 5238 5237 5236 5235 5234 5234 5233 5232 5231 5231 5230 5229 5229 5229 5229
5355 5351 5348 5345 5343 5340 5337 5334 5331 5328 5326 5323 5321 5318 5315 5313 5309 5306 5303 5301 5299 5296 5294 5292 5289 5287 5284 5280 5276 5274 5273 5273 5273 5272 5271 5268 5265 5263 5260 5260 5259 5258 5257 5256 5254 5253 5251 5250 5248 5248 5247 5245 5244 5243 5242 5241 5240 5240 5239 5239 5238 5238 5238 5238 5237 5237 5236 5236 5235 5235 5234 5233 5233 5232 5231 5230 5230 5229 5228 5228 5227 5226 5225 5225 5225 5224
5350 5347 5344 5342 5339 5337 5334 5332 5328 5326 5323 5321 5319 5316 5313 5310 5307 5304 5302 5299 5297 5294 5292 5290 5288 5286 5283 5280 5276 5273 5272 5272 5272 5271 5269 5267 5264 5261 5259 5258 5258 5257 5255 5253 5252 5250 5249 5248 5246 5245 5244 5243 5241 5240 5239 5238 5237 5237 5236 5235 5235 5234 5233 5233 5233 5232 5232 5232 5231 5230 5230 5229 5228 5228 5227 5227 5226 5226 5224 5223 5223 5222 5221 5221 5220 5220
5346 5343 5341 5339 5337 5335 5332 5330 5327 5324 5321 5319 5317 5314 5311 5308 5305 5303 5300 5298 5295 5293 5291 5288 5286 5284 5282 5280 5277 5274 5271 5271 5270 5269 5268 5266 5263 5260 5258 5256 5256 5255 5254 5252 5250 5248 5247 5246 5244 5243 5241 5240 5239 5237 5236 5235 5234 5233 5233 5232 5231 5230 5230 5229 5228 5228 5228 5228 5227 5227 5226 5225 5225 5224 5223 5223 5222 5221 5220 5219 5218 5218 5217 5217 5216 5216
5343 5341 5338 5336 5334 5332 5330 5327 5324 5322 5319 5317 5315 5313 5310 5307 5304 5301 5299 5297 5294 5292 5289 5287 5285 5282 5280 5278 5276 5273 5271 5270 5269 5268 5267 5265 5262 5259 5257 5255 5254 5253 5252 5250 5248 5246 5245 5243 5242 5240 5239 5238 5236 5235 5233 5232 5231 5230 5229 5228 5228 5227 5226 5225 5225 5224 5224 5224 5223 5223 5223 5222 5221 5221 5220 5219 5218 5218 5217 5216 5215 5214 5214 5213 5213 5213
5341 5338 5336 5333 5331 5330 5328 5325 5322 5319 5317 5315 5313 5310 5308 5306 5303 5301 5298 5296 5293 5291 5288 5285 5283 5281 5278 5276 5274 5272 5270 5269 5268 5267 5266 5264 5261 5258 5256 5254 5253 5252 5250 5248 5246 5244 5243 5241 5240 5238 5237 5235 5234 5232 5231 5230 5228 5227 5226 5225 5224 5223 5223 5222 5221 5221 5221 5220 5220 5220 5219 5218 5218 5218 5217 5216 5216 5215 5214 5214 5213 5212 5212 5211 5210 5210
5338 5336 5333 5331 5329 5327 5325 5323 5320 5317 5315 5313 5311 5309 5307 5305 5303 5300 5297 5295 5292 5290 5287 5284 5282 5280 5278 5275 5273 5271 5269 5268 5267 5266 5265 5263 5260 5257 5255 5253 5252 5250 5248 5246 5244 5242 5241 5239 5238 5236 5234 5233 5231 5230 5228 5227 5226 5224 5223 5222 5221 5220 5219 5219 5218 5218 5218 5217 5217 5217 5216 5216 5215 5215 5214 5214 5213 5213 5212 5211 5211 5210 5209 5208 5208 5208
5335 5333 5331 5329 5326 5324 5322 5320 5318 5316 5313 5311 5309 5307 5305 5303 5301 5299 5296 5294 5292 5289 5287 5284 5282 5279 5277 5275 5273 5270 5268 5267 5266 5265 5263 5262 5259 5256 5253 5252 5250 5249 5247 5245 5243 5241 5239 5238 5236 5234 5233 5231 5229 5228 5227 5225 5223 5222 5221 5219 5218 5218 5217 5216 5216 5215 5215 5214 5214 5214 5213 5213 5213 5213 5212 5211 5210 5210 5209 5208 5208 5208 5207 5206 5206 5205
5332 5330 5329 5327 5324 5322 5320 5318 5316 5313 5311 5310 5308 5305 5303 5301 5299 5297 5295 5293 5291 5289 5287 5284 5282 5279 5277 5274 5272 5270 5268 5266 5265 5263 5262 5260 5258 5255 5252 5250 5249 5247 5245 5243 5241 5239 5237 5236 5234 5233 5231 5230 5228 5227 5225 5223 5222 5220 5219 5218 5217 5216 5215 5214 5213 5213 5213 5212 5212 5212 5211 5211 5210 5210 5209 5208 5208 5207 5206 5205 5205 5204 5204 5203 5203 5203
5330 5328 5327 5325 5322 5320 5318 5316 5314 5312 5310 5308 5306 5303 5301 5299 5297 5295 5293 5292 5290 5288 5286 5284 5282 5279 5276 5273 5271 5268 5266 5264 5263 5262 5260 5258 5256 5253 5251 5248 5247 5245 5243 5241 5239 5238 5236 5234 5233 5231 5229 5228 5227 5225 5223 5222 5221 5219 5218 5217 5216 5215 5214 5213 5212 5212 5211 5211 5210 5210 5210 5209 5208 5208 5207 5206 5205 5204 5203 5203 5202 5201 5201 5200 5200 5200
5328 5326 5324 5322 5320 5318 5316 5314 5312 5309 5308 5305 5303 5302 5300 5298 5296 5294 5293 5291 5289 5288 5286 5283 5281 5278 5276 5273 5270 5267 5265 5263 5261 5260 5258 5256 5254 5251 5248 5247 5245 5243 5242 5239 5237 5236 5234 5233 5231 5229 5228 5227 5225 5224 5223 5221 5220 5218 5218 5216 5215 5214 5213 5213 5212 5211 5210 5210 5209 5209 5208 5208 5207 5206 5205 5205 5203 5203 5202 5201 5200 5199 5198 5198 5197 5197
5326 5324 5322 5320 5318 5316 5314 5311 5309 5307 5305 5303 5302 5300 5298 5297 5295 5293 5291 5290 5288 5286 5284 5282 5280 5277 5274 5272 5269 5266 5264 5262 5260 5258 5256 5254 5252 5249 5247 5245 5243 5241 5240 5238 5235 5234 5233 5231 5230 5228 5227 5225 5224 5223 5221 5220 5219 5218 5217 5216 5214 5213 5212 5211 5211 5210 5209 5209 5208 5208 5207 5206 5205 5205 5204 5203 5202 5201 5200 5199 5198 5197 5196 5195 5195 5194
5324 5322 5320 5318 5316 5314 5312 5310 5308 5305 5303 5301 5299 5298 5297 5295 5294 5292 5291 5288 5287 5284 5283 5280 5278 5276 5273 5271 5268 5265 5263 5261 5259 5257 5255 5253 5251 5248 5245 5243 5241 5239 5238 5236 5234 5232 5231 5230 5229 5227 5226 5224 5223 5222 5220 5219 5218 5217 5216 5215 5213 5212 5211 5210 5209 5209 5208 5208 5207 5206 5205 5204 5204 5203 5202 5201 5200 5199 5198 5197 5196 5195 5194 5193 5193 5192
5322 5320 5318 5317 5314 5313 5310 5308 5306 5304 5302 5300 5298 5296 5295 5293 5292 5291 5289 5287 5285 5283 5280 5278 5277 5275 5273 5270 5268 5265 5262 5260 5258 5256 5254 5252 5249 5246 5244 5242 5239 5238 5236 5234 5233 5231 5229 5228 5228 5226 5225 5223 5222 5221 5219 5218 5217 5216 5215 5214 5213 5211 5210 5209 5208 5208 5207 5206 5205 5204 5203 5203 5202 5201 5200 5199 5198 5197 5196 5195 5194 5193 5192 5192 5191 5190
5321 5319 5317 5315 5313 5311 5309 5307 5305 5303 5301 5299 5297 5295 5293 5292 5290 5288 5287 5285 5283 5281 5279 5277 5275 5273 5272 5270 5267 5264 5262 5259 5257 5255 5253 5250 5248 5245 5242 5240 5238 5236 5235 5233 5231 5229 5228 5227 5227 5226 5224 5223 5221 5220 5219 5218 5216 5215 5214 5213 5212 5211 5210 5209 5208 5207 5206 5205 5204 5203 5202 5201 5200 5199 5198 5197 5196 5195 5193 5193 5192 5191 5190 5189 5188 5188
5319 5318 5316 5314 5312 5310 5308 5306 5304 5302 5300 5298 5296 5294 5292 5290 5288 5287 5284 5283 5281 5279 5278 5276 5274 5272 5270 5269 5267 5264 5261 5258 5256 5253 5251 5249 5246 5243 5241 5238 5237 5235 5233 5232 5230 5228 5226 5225 5225 5224 5223 5222 5220 5219 5218 5217 5215 5214 5213 5212 5211 5210 5209 5208 5208 5206 5205 5204 5203 5202 5201 5199 5198 5197 5196 5195 5193 5193 5191 5190 5189 5188 5187 5186 5185 5184
5318 5317 5315 5313 5311 5309 5307 5305 5303 5302 5300 5298 5296 5293 5291 5289 5287 5285 5283 5281 5280 5278 5276 5275 5273 5271 5269 5268 5266 5264 5261 5258 5255 5252 5250 5248 5245 5242 5240 5238 5236 5234 5232 5231 5229 5228 5225 5223 5223 5223 5222 5221 5219 5218 5217 5216 5214 5213 5212 5211 5210 5209 5209 5208 5207 5205 5204 5203 5202 5201 5199 5198 5197 5196 5194 5193 5192 5190 5189 5188 5187 5185 5184 5183 5183 5182
5318 5316 5314 5312 5310 5308 5306 5304 5303 5301 5299 5297 5295 5293 5290 5288 5286 5284 5282 5280 5278 5277 5276 5274 5272 5270 5268 5267 5265 5263 5260 5257 5254 5251 5249 5247 5244 5241 5239 5237 5235 5233 5231 5230 5229 5227 5225 5223 5221 5220 5220 5219 5218 5218 5216 5215 5214 5213 5212 5211 5210 5209 5208 5207 5206 5204 5203 5202 5201 5199 5198 5197 5196 5194 5193 5191 5190 5188 5187 5185 5184 5183 5182 5181 5180 5178
5316 5315 5313 5311 5309 5308 5306 5304 5302 5300 5298 5297 5294 5292 5290 5287 5285 5283 5281 5279 5278 5276 5275 5273 5272 5270 5268 5266 5264 5261 5258 5256 5253 5251 5248 5246 5244 5241 5239 5236 5234 5232 5230 5228 5227 5226 5224 5222 5220 5219 5218 5218 5217 5216 5215 5214 5213 5212 5211 5210 5209 5208 5207 5206 5204 5203 5202 5201 5199 5198 5197 5195 5194 5193 5192 5190 5188 5187 5185 5183 5182 5180 5179 5178 5177 5176
5315 5313 5312 5310 5308 5307 5305 5303 5301 5299 5298 5296 5293 5291 5289 5287 5284 5282 5280 5278 5277 5275 5274 5272 5271 5269 5267 5265 5263 5260 5257 5254 5252 5250 5248 5246 5243 5241 5238 5236 5233 5231 5229 5227 5226 5224 5223 5221 5219 5218 5217 5217 5216 5215 5214 5213 5213 5212 5211 5210 5209 5208 5206 5205 5204 5203 5201 5200 5198 5197 5196 5194 5193 5192 5190 5188 5187 5185 5183 5181 5179 5178 5176 5175 5174 5173
5314 5312 5311 5309 5308 5306 5304 5302 5300 5298 5297 5294 5292 5290 5288 5286 5284 5282 5280 5278 5276 5275 5273 5271 5270 5268 5266 5264 5262 5259 5256 5254 5251 5249 5247 5245 5243 5240 5238 5235 5233 5231 5228 5227 5225 5223 5222 5220 5219 5218 5217 5216 5215 5215 5214 5213 5212 5211 5211 5210 5209 5208 5206 5205 5203 5202 5201 5199 5198 5196 5195 5193 5192 5190 5189 5187 5185 5183 5181 5179 5177 5176 5174 5173 5171 5170
5313 5311 5310 5308 5307 5305 5303 5301 5299 5298 5295 5293 5291 5289 5287 5285 5283 5281 5279 5277 5276 5274 5272 5271 5269 5267 5265 5263 5261 5258 5256 5253 5251 5248 5247 5245 5243 5240 5238 5235 5233 5231 5228 5226 5224 5223 5221 5220 5218 5218 5217 5216 5215 5214 5214 5213 5212 5211 5210 5209 5208 5207 5206 5205 5204 5203 5201 5199 5197 5195 5193 5192 5190 5189 5187 5186 5183 5182 5180 5178 5176 5174 5172 5171 5169 5167
5311 5310 5308 5307 5306 5304 5302 5300 5298 5297 5294 5292 5290 5288 5286 5284 5282 5280 5278 5277 5275 5273 5272 5270 5268 5266 5264 5262 5259 5257 5255 5253 5250 5248 5246 5244 5242 5239 5237 5234 5232 5230 5228 5226 5224 5223 5221 5220 5218 5218 5217 5216 5215 5214 5213 5213 5212 5211 5210 5209 5208 5207 5206 5204 5203 5202 5200 5199 5197 5195 5193 5191 5189 5188 5186 5185 5183 5181 5179 5178 5176 5174 5172 5170 5167 5165
5310 5308 5307 5306 5304 5303 5301 5299 5297 5296 5293 5292 5289 5288 5285 5283 5282 5280 5278 5276 5274 5273 5271 5269 5267 5265 5263 5261 5259 5256 5254 5252 5250 5248 5245 5243 5242 5239 5237 5234 5232 5230 5228 5226 5224 5223 5221 5220 5219 5218 5217 5216 5215 5214 5213 5213 5212 5211 5210 5209 5208 5207 5205 5204 5203 5201 5199 5198 5196 5194 5192 5190 5188 5187 5185 5184 5182 5180 5179 5177 5175 5174 5172 5169 5166 5164
5308 5307 5306 5304 5303 5301 5299 5298 5296 5294 5293 5291 5289 5287 5285 5283 5281 5279 5277 5276 5274 5272 5271 5269 5267 5265 5263 5260 5258 5256 5253 5252 5249 5247 5245 5243 5241 5239 5237 5234 5232 5230 5228 5227 5224 5223 5221 5220 5219 5218 5217 5216 5215 5215 5214 5213 5212 5211 5210 5209 5208 5207 5205 5203 5202 5200 5198 5197 5195 5193 5191 5189 5187 5186 5184 5183 5181 5179 5178 5176 5175 5173 5171 5168 5165 5163
5307 5305 5304 5302 5301 5299 5298 5296 5295 5293 5292 5290 5288 5286 5284 5282 5280 5278 5277 5275 5273 5272 5270 5268 5266 5264 5262 5260 5258 5255 5253 5251 5249 5247 5245 5243 5241 5239 5237 5235 5233 5231 5229 5227 5225 5223 5222 5220 5219 5218 5218 5217 5216 5215 5214 5213 5212 5211 5210 5208 5208 5206 5205 5203 5201 5199 5198 5196 5194 5193 5191 5188 5186 5185 5183 5182 5180 5178 5177 5175 5174 5172 5169 5167 5164 5161
5305 5304 5302 5301 5299 5298 5296 5295 5293 5292 5290 5288 5287 5285 5283 5282 5280 5278 5276 5274 5273 5271 5269 5268 5266 5263 5261 5259 5257 5255 5253 5251 5249 5247 5245 5243 5241 5239 5237 5236 5233 5231 5229 5227 5225 5223 5222 5221 5219 5218 5218 5217 5216 5215 5214 5213 5213 5211 5210 5209 5207 5206 5205 5203 5201 5199 5197 5195 5193 5192 5190 5188 5186 5184 5183 5181 5179 5177 5176 5174 5173 5171 5168 5166 5163 5161
5303 5302 5301 5299 5298 5296 5294 5293 5292 5290 5288 5287 5286 5284 5283 5281 5280 5278 5276 5274 5272 5270 5268 5267 5265 5263 5261 5258 5257 5255 5253 5251 5249 5247 5245 5243 5241 5239 5238 5236 5234 5232 5230 5228 5226 5224 5223 5221 5220 5219 5218 5218 5217 5216 5215 5214 5213 5212 5210 5209 5208 5206 5205 5203 5201 5199 5197 5195 5193 5191 5189 5187 5185 5184 5182 5180 5178 5176 5175 5173 5172 5170 5168 5166 5164 5162
5302 5301 5299 5298 5296 5294 5293 5291 5290 5288 5287 5286 5284 5283 5282 5280 5279 5278 5276 5274 5272 5270 5268 5267 5265 5263 5261 5259 5257 5255 5253 5251 5249 5247 5244 5243 5241 5239 5238 5236 5234 5233 5231 5229 5227 5225 5223 5222 5221 5220 5219 5218 5217 5216 5215 5214 5213 5212 5210 5209 5208 5206 5205 5203 5201 5198 5196 5194 5192 5190 5188 5186 5184 5183 5181 5179 5177 5176 5174 5173 5171 5170 5168 5166 5164 5162
5301 5299 5298 5296 5294 5293 5291 5290 5288 5287 5286 5284 5283 5282 5280 5279 5278 5277 5275 5273 5271 5270 5268 5266 5265 5263 5261 5258 5257 5255 5253 5251 5249 5247 5244 5243 5241 5240 5238 5237 5235 5233 5231 5229 5228 5226 5224 5223 5222 5221 5220 5218 5218 5216 5215 5214 5213 5212 5210 5209 5207 5205 5203 5202 5200 5198 5196 5194 5192 5190 5188 5186 5183 5182 5180 5178 5177 5176 5174 5173 5171 5170 5168 5165 5163 5162
5299 5298 5296 5294 5293 5291 5290 5288 5287 5286 5284 5283 5282 5280 5279 5278 5276 5275 5274 5272 5270 5269 5267 5266 5264 5262 5260 5258 5256 5254 5253 5251 5248 5246 5244 5243 5241 5240 5239 5238 5236 5234 5232 5230 5228 5227 5225 5224 5223 5222 5221 5219 5218 5217 5215 5214 5213 5211 5210 5208 5207 5205 5203 5201 5199 5198 5196 5194 5192 5190 5188 5185 5183 5181 5179 5178 5177 5176 5174 5173 5172 5170 5168 5165 5163 5161
5298 5296 5294 5293 5291 5290 5288 5287 5286 5284 5283 5281 5280 5279 5278 5276 5275 5274 5273 5271 5269 5268 5266 5265 5263 5261 5259 5258 5256 5254 5253 5251 5248 5246 5244 5243 5241 5240 5239 5238 5236 5234 5233 5231 5229 5228 5226 5224 5223 5222 5221 5220 5218 5217 5215 5214 5213 5212 5210 5209 5207 5205 5203 5201 5199 5197 5195 5194 5192 5190 5187 5185 5183 5180 5179 5178 5176 5175 5174 5173 5172 5170 5168 5166 5164 5161
5296 5294 5293 5291 5289 5288 5287 5285 5284 5283 5281 5280 5278 5277 5276 5275 5273 5272 5271 5269 5268 5267 5265 5264 5262 5261 5259 5257 5256 5254 5252 5250 5248 5247 5245 5243 5241 5240 5239 5238 5237 5235 5233 5231 5229 5228 5227 5225 5224 5223 5221 5220 5218 5217 5216 5214 5213 5212 5210 5209 5207 5205 5203 5201 5199 5197 5195 5194 5192 5189 5187 5184 5182 5180 5179 5178 5176 5175 5175 5173 5172 5171 5169 5167 5165 5163
5294 5293 5291 5289 5288 5286 5285 5283 5282 5281 5279 5278 5277 5276 5274 5273 5272 5271 5269 5268 5267 5265 5264 5263 5261 5260 5258 5257 5255 5254 5252 5250 5248 5247 5245 5243 5241 5240 5238 5238 5237 5235 5233 5232 5230 5228 5227 5226 5224 5223 5222 5220 5219 5218 5216 5215 5213 5212 5210 5209 5207 5205 5203 5201 5199 5198 5196 5194 5192 5189 5187 5184 5182 5181 5179 5178 5177 5176 5175 5174 5173 5172 5170 5168 5167 5165
5293 5291 5289 5288 5286 5285 5283 5282 5280 5279 5277 5276 5275 5273 5273 5271 5270 5269 5268 5267 5265 5264 5263 5261 5260 5258 5257 5256 5254 5253 5252 5250 5248 5247 5245 5243 5241 5240 5238 5238 5237 5235 5234 5232 5230 5229 5228 5226 5225 5224 5223 5221 5220 5218 5217 5215 5213 5212 5211 5209 5207 5205 5203 5201 5199 5198 5196 5195 5193 5190 5187 5185 5183 5181 5180 5179 5178 5177 5176 5175 5174 5173 5172 5170 5169 5167
5291 5289 5288 5286 5284 5283 5282 5280 5278 5277 5276 5274 5273 5272 5270 5269 5268 5267 5266 5265 5264 5263 5262 5260 5259 5258 5256 5255 5253 5252 5251 5250 5248 5247 5245 5243 5241 5240 5238 5237 5237 5236 5234 5233 5231 5229 5228 5227 5225 5224 5223 5222 5220 5219 5217 5216 5214 5213 5211 5209 5208 5206 5203 5202 5200 5198 5197 5195 5193 5190 5188 5186 5184 5182 5181 5180 5179 5178 5177 5176 5175 5174 5173 5172 5171 5169
5289 5288 5286 5284 5283 5281 5280 5278 5277 5275 5274 5272 5271 5270 5268 5267 5266 5265 5264 5263 5262 5261 5260 5259 5258 5257 5255 5254 5253 5252 5250 5249 5248 5246 5245 5243 5241 5239 5238 5237 5236 5235 5234 5233 5231 5230 5228 5227 5226 5224 5223 5222 5221 5219 5218 5216 5215 5213 5212 5210 5208 5206 5204 5202 5200 5199 5198 5196 5193 5190 5188 5187 5185 5183 5182 5181 5181 5180 5179 5178 5177 5175 5174 5173 5173 5172
5288 5286 5284 5283 5281 5279 5278 5277 5275 5273 5272 5271 5269 5268 5267 5266 5264 5263 5262 5261 5260 5259 5258 5258 5257 5256 5255 5253 5252 5251 5250 5248 5247 5246 5244 5243 5241 5239 5238 5237 5236 5235 5234 5233 5232 5230 5229 5227 5226 5225 5224 5223 5221 5220 5219 5217 5215 5214 5212 5210 5209 5207 5205 5203 5202 5200 5199 5196 5194 5192 5189 5188 5186 5185 5184 5183 5182 5182 5181 5180 5178 5177 5176 5175 5175 5174